| time (UTC) | temp F | wind direction | speed knots | gust knots | rain 1hr in | rain 24hr in | rain mn in | humidity % | barometer mb |
| 20260831150926 | 66 | 192 | 5.2 | 9.6 | 0.00 | 0.00 | 0.00 | 90 | 1028.1 |
| 20260831150317 | 66 | 192 | 5.2 | 9.6 | 0.00 | 0.00 | 0.00 | 90 | 1028.1 |
| 20260831145441 | 66 | 186 | 6.1 | 8.7 | 0.00 | 0.00 | 0.00 | 91 | 1028.1 |
| 20260831144823 | 66 | 186 | 6.1 | 8.7 | 0.00 | 0.00 | 0.00 | 91 | 1028.1 |
| 20260831143922 | 65 | 209 | 6.1 | 8.7 | 0.00 | 0.00 | 0.00 | 92 | 1027.7 |
| 20260831143331 | 65 | 209 | 6.1 | 8.7 | 0.00 | 0.00 | 0.00 | 92 | 1027.7 |
| 20260831142410 | 65 | 244 | 3.5 | 7.0 | 0.00 | 0.00 | 0.00 | 92 | 1027.7 |
| 20260831140929 | 65 | 247 | 7.0 | 8.7 | 0.00 | 0.00 | 0.00 | 92 | 1027.7 |
| 20260831140339 | 65 | 247 | 7.0 | 8.7 | 0.00 | 0.00 | 0.00 | 92 | 1027.7 |
| 20260831135433 | 65 | 266 | 6.1 | 7.0 | 0.00 | 0.00 | 0.00 | 92 | 1027.4 |
| 20260831134848 | 65 | 266 | 6.1 | 7.0 | 0.00 | 0.00 | 0.00 | 92 | 1027.4 |
| 20260831133340 | 65 | 190 | 5.2 | 6.1 | 0.00 | 0.00 | 0.00 | 94 | 1027.4 |
| 20260831132448 | 64 | 258 | 2.6 | 5.2 | 0.00 | 0.00 | 0.00 | 95 | 1027.7 |
| 20260831131848 | 64 | 258 | 2.6 | 5.2 | 0.00 | 0.00 | 0.00 | 95 | 1027.7 |
| 20260831131239 | 64 | 258 | 2.6 | 7.0 | 0.00 | 0.00 | 0.00 | 95 | 1027.7 |
| 20260831130638 | 64 | 258 | 2.6 | 7.0 | 0.00 | 0.00 | 0.00 | 95 | 1027.7 |
| 20260831130043 | 64 | 258 | 2.6 | 7.0 | 0.00 | 0.00 | 0.00 | 95 | 1027.7 |
| 20260831125406 | 64 | 205 | 3.5 | 7.0 | 0.00 | 0.00 | 0.00 | 95 | 1027.7 |
| 20260831124810 | 64 | 205 | 3.5 | 7.0 | 0.00 | 0.00 | 0.00 | 95 | 1027.7 |
| 20260831123910 | 64 | 180 | 0.9 | 7.0 | 0.00 | 0.00 | 0.00 | 95 | 1027.7 |
| 20260831123350 | 64 | 180 | 0.9 | 7.0 | 0.00 | 0.00 | 0.00 | 95 | 1027.7 |
| 20260831122413 | 63 | 227 | 3.5 | 6.1 | 0.00 | 0.00 | 0.00 | 95 | 1027.7 |
| 20260831121833 | 63 | 227 | 3.5 | 6.1 | 0.00 | 0.00 | 0.00 | 95 | 1027.7 |
| 20260831120318 | 63 | 239 | 4.3 | 7.8 | 0.00 | 0.00 | 0.00 | 95 | 1027.4 |
| 20260831115442 | 63 | 209 | 4.3 | 8.7 | 0.00 | 0.00 | 0.00 | 94 | 1027.4 |
| 20260831114222 | 63 | 240 | 7.8 | 7.8 | 0.00 | 0.00 | 0.00 | 94 | 1027.0 |
| 20260831113636 | 63 | 240 | 7.8 | 7.8 | 0.00 | 0.00 | 0.00 | 94 | 1027.0 |
| 20260831113049 | 63 | 240 | 7.8 | 7.8 | 0.00 | 0.00 | 0.00 | 94 | 1027.0 |
| 20260831112411 | 63 | 212 | 3.5 | 8.7 | 0.00 | 0.00 | 0.00 | 94 | 1027.0 |
| 20260831110946 | 62 | 257 | 1.7 | 7.8 | 0.00 | 0.00 | 0.00 | 94 | 1027.0 |
| 20260831105122 | 62 | 259 | 3.5 | 8.7 | 0.00 | 0.00 | 0.00 | 94 | 1026.7 |
| 20260831104545 | 62 | 259 | 3.5 | 8.7 | 0.00 | 0.00 | 0.00 | 94 | 1026.7 |
| 20260831103922 | 62 | 226 | 7.0 | 9.6 | 0.00 | 0.00 | 0.00 | 93 | 1026.7 |
| 20260831102417 | 63 | 225 | 6.1 | 9.6 | 0.00 | 0.00 | 0.00 | 93 | 1026.4 |
| 20260831101839 | 63 | 225 | 6.1 | 9.6 | 0.00 | 0.00 | 0.00 | 93 | 1026.4 |
| 20260831101226 | 63 | 213 | 3.5 | 8.7 | 0.00 | 0.00 | 0.00 | 93 | 1026.4 |
| 20260831100629 | 63 | 213 | 3.5 | 8.7 | 0.00 | 0.00 | 0.00 | 93 | 1026.4 |
| 20260831100049 | 63 | 213 | 3.5 | 8.7 | 0.00 | 0.00 | 0.00 | 93 | 1026.4 |
| 20260831094241 | 63 | 209 | 6.1 | 12.2 | 0.00 | 0.00 | 0.00 | 92 | 1026.4 |
| 20260831093645 | 63 | 209 | 6.1 | 12.2 | 0.00 | 0.00 | 0.00 | 92 | 1026.4 |
| 20260831093047 | 63 | 209 | 6.1 | 12.2 | 0.00 | 0.00 | 0.00 | 92 | 1026.4 |
| 20260831092425 | 63 | 360 | 5.2 | 8.7 | 0.00 | 0.00 | 0.00 | 92 | 1026.7 |
| 20260831091841 | 63 | 360 | 5.2 | 8.7 | 0.00 | 0.00 | 0.00 | 92 | 1026.7 |
| 20260831090932 | 64 | 234 | 4.3 | 7.8 | 0.00 | 0.00 | 0.00 | 92 | 1026.7 |
| 20260831090349 | 64 | 234 | 4.3 | 7.8 | 0.00 | 0.00 | 0.00 | 92 | 1026.7 |
| 20260831085446 | 64 | 209 | 4.3 | 7.8 | 0.00 | 0.00 | 0.00 | 92 | 1026.7 |
| 20260831084813 | 64 | 209 | 4.3 | 7.8 | 0.00 | 0.00 | 0.00 | 92 | 1026.7 |
| 20260831083627 | 64 | 212 | 3.5 | 7.0 | 0.00 | 0.00 | 0.00 | 91 | 1026.4 |
| 20260831083041 | 64 | 212 | 3.5 | 7.0 | 0.00 | 0.00 | 0.00 | 91 | 1026.4 |
| 20260831082423 | 63 | 263 | 3.5 | 6.1 | 0.00 | 0.00 | 0.00 | 92 | 1026.4 |
| 20260831081818 | 63 | 263 | 3.5 | 6.1 | 0.00 | 0.00 | 0.00 | 92 | 1026.4 |
| 20260831080934 | 63 | 225 | 2.6 | 7.8 | 0.00 | 0.00 | 0.00 | 91 | 1026.4 |
| 20260831080325 | 63 | 225 | 2.6 | 7.8 | 0.00 | 0.00 | 0.00 | 91 | 1026.4 |
| 20260831075739 | 63 | 212 | 2.6 | 7.8 | 0.00 | 0.00 | 0.00 | 90 | 1026.0 |
| 20260831075148 | 63 | 212 | 2.6 | 7.8 | 0.00 | 0.00 | 0.00 | 90 | 1026.0 |
| 20260831073946 | 63 | 206 | 2.6 | 8.7 | 0.00 | 0.00 | 0.00 | 90 | 1026.0 |
| 20260831073349 | 63 | 206 | 2.6 | 8.7 | 0.00 | 0.00 | 0.00 | 90 | 1026.0 |
| 20260831071845 | 63 | 256 | 6.1 | 7.0 | 0.00 | 0.00 | 0.00 | 90 | 1026.0 |
| 20260831070648 | 63 | 260 | 6.1 | 9.6 | 0.00 | 0.00 | 0.00 | 90 | 1026.0 |
| 20260831070008 | 63 | 245 | 3.5 | 7.8 | 0.00 | 0.00 | 0.00 | 89 | 1026.4 |
| 20260831065444 | 63 | 245 | 3.5 | 7.8 | 0.00 | 0.00 | 0.00 | 89 | 1026.4 |
| 20260831064821 | 63 | 245 | 3.5 | 7.8 | 0.00 | 0.00 | 0.00 | 89 | 1026.4 |
| 20260831063335 | 63 | 246 | 7.0 | 9.6 | 0.00 | 0.00 | 0.00 | 89 | 1026.4 |
| 20260831062429 | 64 | 206 | 3.5 | 7.8 | 0.00 | 0.00 | 0.00 | 88 | 1026.7 |
| 20260831061817 | 64 | 206 | 3.5 | 7.8 | 0.00 | 0.00 | 0.00 | 88 | 1026.7 |
| 20260831060929 | 64 | 252 | 3.5 | 8.7 | 0.00 | 0.00 | 0.00 | 87 | 1026.7 |
| 20260831060306 | 64 | 252 | 3.5 | 8.7 | 0.00 | 0.00 | 0.00 | 87 | 1026.7 |
| 20260831055726 | 64 | 257 | 4.3 | 7.0 | 0.00 | 0.00 | 0.00 | 88 | 1027.0 |
| 20260831055110 | 64 | 257 | 4.3 | 7.0 | 0.00 | 0.00 | 0.00 | 88 | 1027.0 |
| 20260831054545 | 64 | 257 | 4.3 | 7.0 | 0.00 | 0.00 | 0.00 | 88 | 1027.0 |
| 20260831053931 | 64 | 248 | 3.5 | 5.2 | 0.00 | 0.00 | 0.00 | 88 | 1027.0 |
| 20260831053334 | 64 | 248 | 3.5 | 5.2 | 0.00 | 0.00 | 0.00 | 88 | 1027.0 |
| 20260831051825 | 64 | 214 | 3.5 | 6.1 | 0.00 | 0.00 | 0.00 | 88 | 1027.0 |
| 20260831050642 | 64 | 201 | 1.7 | 5.2 | 0.00 | 0.00 | 0.00 | 88 | 1027.0 |
| 20260831045438 | 64 | 256 | 4.3 | 7.8 | 0.00 | 0.00 | 0.00 | 88 | 1027.0 |
| 20260831044213 | 64 | 223 | 3.5 | 8.7 | 0.00 | 0.00 | 0.00 | 88 | 1027.4 |
| 20260831043638 | 64 | 223 | 3.5 | 8.7 | 0.00 | 0.00 | 0.00 | 88 | 1027.4 |
| 20260831043049 | 64 | 223 | 3.5 | 8.7 | 0.00 | 0.00 | 0.00 | 88 | 1027.4 |
| 20260831042416 | 64 | 247 | 6.1 | 10.4 | 0.00 | 0.00 | 0.00 | 88 | 1027.4 |
| 20260831041832 | 64 | 247 | 6.1 | 10.4 | 0.00 | 0.00 | 0.00 | 88 | 1027.4 |
| 20260831040912 | 64 | 229 | 5.2 | 9.6 | 0.00 | 0.00 | 0.00 | 88 | 1027.4 |
| 20260831034829 | 65 | 237 | 6.1 | 10.4 | 0.00 | 0.00 | 0.00 | 87 | 1027.4 |
| 20260831033929 | 65 | 205 | 5.2 | 11.3 | 0.00 | 0.00 | 0.00 | 87 | 1027.4 |
| 20260831033344 | 65 | 205 | 5.2 | 11.3 | 0.00 | 0.00 | 0.00 | 87 | 1027.4 |
| 20260831032451 | 65 | 262 | 6.1 | 9.6 | 0.00 | 0.00 | 0.00 | 87 | 1027.4 |
| 20260831031813 | 65 | 262 | 6.1 | 9.6 | 0.00 | 0.00 | 0.00 | 87 | 1027.4 |
| 20260831030941 | 65 | 211 | 3.5 | 7.8 | 0.00 | 0.00 | 0.00 | 88 | 1027.4 |
| 20260831030318 | 65 | 211 | 3.5 | 7.8 | 0.00 | 0.00 | 0.00 | 88 | 1027.4 |
| 20260831025140 | 65 | 238 | 4.3 | 8.7 | 0.00 | 0.00 | 0.00 | 87 | 1027.4 |
| 20260831024541 | 65 | 238 | 4.3 | 8.7 | 0.00 | 0.00 | 0.00 | 87 | 1027.4 |
| 20260831023934 | 65 | 263 | 8.7 | 10.4 | 0.00 | 0.00 | 0.00 | 87 | 1027.4 |
| 20260831023310 | 65 | 263 | 8.7 | 10.4 | 0.00 | 0.00 | 0.00 | 87 | 1027.4 |
| 20260831022426 | 65 | 232 | 4.3 | 8.7 | 0.00 | 0.00 | 0.00 | 85 | 1027.7 |
| 20260831021811 | 65 | 232 | 4.3 | 8.7 | 0.00 | 0.00 | 0.00 | 85 | 1027.7 |
| 20260831020925 | 65 | 215 | 2.6 | 7.0 | 0.00 | 0.00 | 0.00 | 87 | 1027.4 |
| 20260831020343 | 65 | 215 | 2.6 | 7.0 | 0.00 | 0.00 | 0.00 | 87 | 1027.4 |
| 20260831015435 | 65 | 244 | 4.3 | 7.8 | 0.00 | 0.00 | 0.00 | 90 | 1027.7 |
| 20260831014807 | 65 | 244 | 4.3 | 7.8 | 0.00 | 0.00 | 0.00 | 90 | 1027.7 |
| 20260831014231 | 65 | 230 | 2.6 | 7.0 | 0.00 | 0.00 | 0.00 | 89 | 1028.1 |
| 20260831013622 | 65 | 230 | 2.6 | 7.0 | 0.00 | 0.00 | 0.00 | 89 | 1028.1 |
| 20260831013049 | 65 | 230 | 2.6 | 7.0 | 0.00 | 0.00 | 0.00 | 89 | 1028.1 |
| 20260831012433 | 65 | 205 | 3.5 | 9.6 | 0.00 | 0.00 | 0.00 | 88 | 1027.7 |
| 20260831011251 | 65 | 205 | 3.5 | 6.1 | 0.00 | 0.00 | 0.00 | 88 | 1027.4 |
| 20260831010633 | 65 | 205 | 3.5 | 6.1 | 0.00 | 0.00 | 0.00 | 88 | 1027.4 |
| 20260831010048 | 65 | 205 | 3.5 | 6.1 | 0.00 | 0.00 | 0.00 | 88 | 1027.4 |
| 20260831005445 | 65 | 360 | 3.5 | 7.8 | 0.00 | 0.00 | 0.00 | 88 | 1027.4 |
| 20260831004839 | 65 | 360 | 3.5 | 7.8 | 0.00 | 0.00 | 0.00 | 88 | 1027.4 |
| 20260831003948 | 65 | 230 | 4.3 | 8.7 | 0.00 | 0.00 | 0.00 | 88 | 1027.0 |
| 20260831003307 | 65 | 230 | 4.3 | 8.7 | 0.00 | 0.00 | 0.00 | 88 | 1027.0 |
| 20260831002133 | 65 | 213 | 4.3 | 7.8 | 0.00 | 0.00 | 0.00 | 89 | 1026.7 |
| 20260831001541 | 65 | 213 | 4.3 | 7.8 | 0.00 | 0.00 | 0.00 | 89 | 1026.7 |
| 20260831000949 | 65 | 256 | 6.1 | 7.8 | 0.00 | 0.00 | 0.00 | 88 | 1026.4 |
| 20260831000313 | 65 | 256 | 6.1 | 7.8 | 0.00 | 0.00 | 0.00 | 88 | 1026.4 |
| 20260830234847 | 66 | 218 | 3.5 | 8.7 | 0.00 | 0.00 | 0.00 | 89 | 1026.4 |
| 20260830233947 | 67 | 229 | 0.9 | 8.7 | 0.00 | 0.00 | 0.00 | 87 | 1026.4 |
| 20260830233325 | 67 | 229 | 0.9 | 8.7 | 0.00 | 0.00 | 0.00 | 87 | 1026.4 |
| 20260830232412 | 68 | 215 | 3.5 | 9.6 | 0.00 | 0.00 | 0.00 | 86 | 1026.7 |
| 20260830230919 | 68 | 184 | 3.5 | 5.2 | 0.00 | 0.00 | 0.00 | 84 | 1026.7 |
| 20260830225747 | 68 | 202 | 0.9 | 3.5 | 0.00 | 0.00 | 0.00 | 85 | 1026.7 |
| 20260830225112 | 68 | 202 | 0.9 | 3.5 | 0.00 | 0.00 | 0.00 | 85 | 1026.7 |
| 20260830224549 | 68 | 202 | 0.9 | 3.5 | 0.00 | 0.00 | 0.00 | 85 | 1026.7 |
| 20260830223926 | 68 | 279 | 0.9 | 8.7 | 0.00 | 0.00 | 0.00 | 82 | 1026.7 |
| 20260830223313 | 68 | 279 | 0.9 | 8.7 | 0.00 | 0.00 | 0.00 | 82 | 1026.7 |
| 20260830222427 | 69 | 236 | 6.1 | 10.4 | 0.00 | 0.00 | 0.00 | 81 | 1026.7 |
| 20260830221823 | 69 | 236 | 6.1 | 10.4 | 0.00 | 0.00 | 0.00 | 81 | 1026.7 |
| 20260830220940 | 69 | 265 | 7.0 | 8.7 | 0.00 | 0.00 | 0.00 | 81 | 1027.0 |
| 20260830220335 | 69 | 265 | 7.0 | 8.7 | 0.00 | 0.00 | 0.00 | 81 | 1027.0 |
| 20260830215123 | 70 | 246 | 3.5 | 8.7 | 0.00 | 0.00 | 0.00 | 79 | 1027.0 |
| 20260830214548 | 70 | 246 | 3.5 | 8.7 | 0.00 | 0.00 | 0.00 | 79 | 1027.0 |
| 20260830213940 | 72 | 269 | 3.5 | 9.6 | 0.00 | 0.00 | 0.00 | 75 | 1026.7 |
| 20260830213322 | 72 | 269 | 3.5 | 9.6 | 0.00 | 0.00 | 0.00 | 75 | 1026.7 |
| 20260830212447 | 72 | 187 | 7.8 | 12.2 | 0.00 | 0.00 | 0.00 | 72 | 1026.7 |
| 20260830211844 | 72 | 187 | 7.8 | 12.2 | 0.00 | 0.00 | 0.00 | 72 | 1026.7 |
| 20260830211221 | 72 | 245 | 7.0 | 10.4 | 0.00 | 0.00 | 0.00 | 75 | 1026.7 |
| 20260830210613 | 72 | 245 | 7.0 | 10.4 | 0.00 | 0.00 | 0.00 | 75 | 1026.7 |
| 20260830210045 | 72 | 245 | 7.0 | 10.4 | 0.00 | 0.00 | 0.00 | 75 | 1026.7 |
| 20260830205430 | 73 | 212 | 2.6 | 10.4 | 0.00 | 0.00 | 0.00 | 72 | 1026.4 |
| 20260830204832 | 73 | 212 | 2.6 | 10.4 | 0.00 | 0.00 | 0.00 | 72 | 1026.4 |
| 20260830204247 | 73 | 160 | 3.5 | 11.3 | 0.00 | 0.00 | 0.00 | 72 | 1026.4 |
| 20260830203641 | 73 | 160 | 3.5 | 11.3 | 0.00 | 0.00 | 0.00 | 72 | 1026.4 |
| 20260830203046 | 73 | 160 | 3.5 | 11.3 | 0.00 | 0.00 | 0.00 | 72 | 1026.4 |
| 20260830202427 | 73 | 227 | 4.3 | 10.4 | 0.00 | 0.00 | 0.00 | 69 | 1026.7 |
| 20260830201822 | 73 | 227 | 4.3 | 10.4 | 0.00 | 0.00 | 0.00 | 69 | 1026.7 |
| 20260830200319 | 74 | 256 | 7.0 | 10.4 | 0.00 | 0.00 | 0.00 | 67 | 1027.0 |
| 20260830195416 | 73 | 172 | 1.7 | 12.2 | 0.00 | 0.00 | 0.00 | 68 | 1026.7 |
| 20260830194833 | 73 | 172 | 1.7 | 12.2 | 0.00 | 0.00 | 0.00 | 68 | 1026.7 |
| 20260830193943 | 72 | 227 | 7.0 | 14.8 | 0.00 | 0.00 | 0.00 | 71 | 1027.0 |
| 20260830192722 | 73 | 246 | 8.7 | 12.2 | 0.00 | 0.00 | 0.00 | 72 | 1027.4 |
| 20260830192122 | 73 | 246 | 8.7 | 12.2 | 0.00 | 0.00 | 0.00 | 72 | 1027.4 |
| 20260830190935 | 70 | 200 | 4.3 | 12.2 | 0.00 | 0.00 | 0.00 | 77 | 1027.4 |
| 20260830190313 | 70 | 200 | 4.3 | 12.2 | 0.00 | 0.00 | 0.00 | 77 | 1027.4 |
| 20260830185707 | 71 | 200 | 8.7 | 12.2 | 0.00 | 0.00 | 0.00 | 74 | 1027.7 |
| 20260830185132 | 71 | 200 | 8.7 | 12.2 | 0.00 | 0.00 | 0.00 | 74 | 1027.7 |
| 20260830184508 | 73 | 267 | 1.7 | 12.2 | 0.00 | 0.00 | 0.00 | 67 | 1027.7 |
| 20260830183934 | 73 | 267 | 1.7 | 12.2 | 0.00 | 0.00 | 0.00 | 67 | 1027.7 |
| 20260830182440 | 73 | 200 | 4.3 | 12.2 | 0.00 | 0.00 | 0.00 | 67 | 1027.7 |
| 20260830181841 | 73 | 200 | 4.3 | 12.2 | 0.00 | 0.00 | 0.00 | 67 | 1027.7 |
| 20260830180617 | 73 | 210 | 6.1 | 10.4 | 0.00 | 0.00 | 0.00 | 66 | 1028.1 |
| 20260830180049 | 73 | 210 | 6.1 | 10.4 | 0.00 | 0.00 | 0.00 | 66 | 1028.1 |
| 20260830175448 | 72 | 238 | 4.3 | 14.8 | 0.00 | 0.00 | 0.00 | 63 | 1028.1 |
| 20260830174847 | 72 | 238 | 4.3 | 14.8 | 0.00 | 0.00 | 0.00 | 63 | 1028.1 |
| 20260830173949 | 71 | 202 | 7.8 | 15.6 | 0.00 | 0.00 | 0.00 | 72 | 1028.4 |
| 20260830172446 | 71 | 186 | 5.2 | 13.0 | 0.00 | 0.00 | 0.00 | 71 | 1028.4 |
| 20260830171844 | 71 | 186 | 5.2 | 13.0 | 0.00 | 0.00 | 0.00 | 71 | 1028.4 |
| 20260830171240 | 68 | 242 | 9.6 | 13.0 | 0.00 | 0.00 | 0.00 | 82 | 1028.4 |
| 20260830170609 | 68 | 242 | 9.6 | 13.0 | 0.00 | 0.00 | 0.00 | 82 | 1028.4 |
| 20260830170047 | 68 | 242 | 9.6 | 13.0 | 0.00 | 0.00 | 0.00 | 82 | 1028.4 |
| 20260830165423 | 70 | 205 | 8.7 | 11.3 | 0.00 | 0.00 | 0.00 | 77 | 1028.7 |
| 20260830164843 | 70 | 205 | 8.7 | 11.3 | 0.00 | 0.00 | 0.00 | 77 | 1028.7 |
| 20260830163613 | 68 | 197 | 5.2 | 12.2 | 0.00 | 0.00 | 0.00 | 81 | 1028.7 |
| 20260830163045 | 68 | 197 | 5.2 | 12.2 | 0.00 | 0.00 | 0.00 | 81 | 1028.7 |
| 20260830162414 | 68 | 192 | 6.1 | 9.6 | 0.00 | 0.00 | 0.00 | 82 | 1029.1 |
| 20260830161808 | 68 | 192 | 6.1 | 9.6 | 0.00 | 0.00 | 0.00 | 82 | 1029.1 |
| 20260830160925 | 69 | 171 | 5.2 | 11.3 | 0.00 | 0.00 | 0.00 | 81 | 1028.7 |
| 20260830160320 | 69 | 171 | 5.2 | 11.3 | 0.00 | 0.00 | 0.00 | 81 | 1028.7 |
| 20260830155408 | 70 | 209 | 7.0 | 12.2 | 0.00 | 0.00 | 0.00 | 76 | 1028.7 |
| 20260830154835 | 70 | 209 | 7.0 | 12.2 | 0.00 | 0.00 | 0.00 | 76 | 1028.7 |
| 20260830153924 | 68 | 190 | 5.2 | 13.0 | 0.00 | 0.00 | 0.00 | 84 | 1028.7 |
| 20260830153326 | 68 | 190 | 5.2 | 13.0 | 0.00 | 0.00 | 0.00 | 84 | 1028.7 |
| 20260830152442 | 67 | 182 | 7.8 | 12.2 | 0.00 | 0.00 | 0.00 | 85 | 1028.7 |